| time (UTC) | temp F | wind direction | speed knots | gust knots | rain 1hr in | rain 24hr in | rain mn in | humidity % | barometer mb |
| 20260506182429 | 56 | 103 | 1.7 | 8.7 | 0.00 | 0.00 | 0.00 | 59 | 1011.6 |
| 20260506181927 | 56 | 188 | 1.7 | 8.7 | 0.00 | 0.00 | 0.00 | 59 | 1011.6 |
| 20260506181426 | 57 | 68 | 0.9 | 7.8 | 0.00 | 0.00 | 0.00 | 59 | 1011.6 |
| 20260506180927 | 57 | 51 | 1.7 | 6.1 | 0.00 | 0.00 | 0.00 | 59 | 1011.5 |
| 20260506180655 | 57 | 127 | 1.7 | 6.1 | 0.00 | 0.00 | 0.00 | 59 | 1011.5 |
| 20260506175925 | 57 | 187 | 0.9 | 5.2 | 0.00 | 0.00 | 0.00 | 60 | 1011.3 |
| 20260506175656 | 57 | 186 | 0.9 | 5.2 | 0.00 | 0.00 | 0.00 | 60 | 1011.4 |
| 20260506174933 | 57 | 96 | 0.9 | 6.1 | 0.00 | 0.00 | 0.00 | 60 | 1011.3 |
| 20260506174423 | 57 | 40 | 0.9 | 6.1 | 0.00 | 0.00 | 0.00 | 60 | 1011.2 |
| 20260506173925 | 57 | 120 | 0.9 | 4.3 | 0.00 | 0.00 | 0.00 | 60 | 1011.1 |
| 20260506173425 | 57 | 324 | 0.9 | 5.2 | 0.00 | 0.00 | 0.00 | 60 | 1011.1 |
| 20260506172927 | 57 | 106 | 1.7 | 6.1 | 0.00 | 0.00 | 0.00 | 60 | 1011.0 |
| 20260506172422 | 57 | 110 | 1.7 | 6.1 | 0.00 | 0.00 | 0.00 | 60 | 1011.0 |
| 20260506171923 | 57 | 241 | 1.7 | 7.8 | 0.00 | 0.00 | 0.00 | 60 | 1011.0 |
| 20260506171422 | 57 | 65 | 1.7 | 7.8 | 0.00 | 0.00 | 0.00 | 60 | 1010.9 |
| 20260506170919 | 57 | 14 | 1.7 | 6.1 | 0.00 | 0.00 | 0.00 | 59 | 1010.9 |
| 20260506170904 | 57 | 317 | 0.9 | 6.1 | 0.00 | 0.00 | 0.00 | 60 | 1010.9 |
| 20260506165920 | 57 | 46 | 1.7 | 7.0 | 0.00 | 0.00 | 0.00 | 60 | 1010.8 |
| 20260506165425 | 57 | 54 | 1.7 | 11.3 | 0.00 | 0.00 | 0.00 | 60 | 1010.7 |
| 20260506165415 | 58 | 243 | 1.7 | 11.3 | 0.00 | 0.00 | 0.00 | 60 | 1010.7 |
| 20260506164421 | 58 | 94 | 1.7 | 6.1 | 0.00 | 0.00 | 0.00 | 60 | 1010.7 |
| 20260506163919 | 58 | 356 | 1.7 | 6.1 | 0.00 | 0.00 | 0.00 | 60 | 1010.8 |
| 20260506163421 | 58 | 27 | 1.7 | 7.8 | 0.00 | 0.00 | 0.00 | 59 | 1010.7 |
| 20260506162920 | 58 | 219 | 1.7 | 7.8 | 0.00 | 0.00 | 0.00 | 59 | 1010.6 |
| 20260506162421 | 58 | 32 | 1.7 | 6.1 | 0.00 | 0.00 | 0.00 | 59 | 1010.6 |
| 20260506161921 | 58 | 82 | 1.7 | 8.7 | 0.00 | 0.00 | 0.00 | 60 | 1010.6 |
| 20260506161657 | 57 | 74 | 1.7 | 8.7 | 0.00 | 0.00 | 0.00 | 60 | 1010.6 |
| 20260506160920 | 57 | 47 | 1.7 | 7.0 | 0.00 | 0.00 | 0.00 | 60 | 1010.6 |
| 20260506160420 | 57 | 311 | 1.7 | 9.6 | 0.00 | 0.00 | 0.00 | 60 | 1010.6 |
| 20260506155924 | 57 | 245 | 1.7 | 10.4 | 0.00 | 0.00 | 0.00 | 59 | 1010.6 |
| 20260506155419 | 57 | 77 | 1.7 | 10.4 | 0.00 | 0.00 | 0.00 | 59 | 1010.7 |
| 20260506154922 | 57 | 106 | 0.9 | 4.3 | 0.00 | 0.00 | 0.00 | 57 | 1010.7 |
| 20260506154420 | 57 | 345 | 0.9 | 4.3 | 0.00 | 0.00 | 0.00 | 56 | 1010.7 |
| 20260506153918 | 57 | 117 | 0.9 | 4.3 | 0.00 | 0.00 | 0.00 | 56 | 1010.7 |
| 20260506153419 | 57 | 111 | 1.7 | 5.2 | 0.00 | 0.00 | 0.00 | 56 | 1010.7 |
| 20260506152916 | 57 | 110 | 1.7 | 5.2 | 0.00 | 0.00 | 0.00 | 56 | 1010.6 |
| 20260506152417 | 58 | 96 | 1.7 | 6.1 | 0.00 | 0.00 | 0.00 | 55 | 1010.6 |
| 20260506151917 | 58 | 37 | 1.7 | 6.1 | 0.00 | 0.00 | 0.00 | 56 | 1010.5 |
| 20260506151644 | 58 | 30 | 1.7 | 5.2 | 0.00 | 0.00 | 0.00 | 58 | 1010.5 |
| 20260506150935 | 58 | 95 | 2.6 | 10.4 | 0.00 | 0.00 | 0.00 | 53 | 1010.5 |
| 20260506150421 | 58 | 57 | 2.6 | 10.4 | 0.00 | 0.00 | 0.00 | 52 | 1010.5 |
| 20260506145918 | 58 | 32 | 1.7 | 7.8 | 0.00 | 0.00 | 0.00 | 52 | 1010.4 |
| 20260506145637 | 58 | 56 | 2.6 | 7.8 | 0.00 | 0.00 | 0.00 | 53 | 1010.5 |
| 20260506144919 | 58 | 136 | 2.6 | 8.7 | 0.00 | 0.00 | 0.00 | 56 | 1010.5 |
| 20260506144642 | 58 | 77 | 1.7 | 8.7 | 0.00 | 0.00 | 0.00 | 56 | 1010.5 |
| 20260506143918 | 58 | 80 | 1.7 | 6.1 | 0.00 | 0.00 | 0.00 | 55 | 1010.4 |
| 20260506143418 | 58 | 124 | 2.6 | 7.8 | 0.00 | 0.00 | 0.00 | 57 | 1010.4 |
| 20260506142919 | 58 | 94 | 2.6 | 7.8 | 0.00 | 0.00 | 0.00 | 56 | 1010.4 |
| 20260506142419 | 58 | 99 | 2.6 | 7.0 | 0.00 | 0.00 | 0.00 | 56 | 1010.4 |
| 20260506141917 | 59 | 100 | 2.6 | 6.1 | 0.00 | 0.00 | 0.00 | 55 | 1010.3 |
| 20260506141418 | 59 | 92 | 2.6 | 7.0 | 0.00 | 0.00 | 0.00 | 54 | 1010.4 |
| 20260506140918 | 59 | 18 | 1.7 | 7.0 | 0.00 | 0.00 | 0.00 | 52 | 1010.4 |
| 20260506140419 | 59 | 39 | 2.6 | 9.6 | 0.00 | 0.00 | 0.00 | 56 | 1010.4 |
| 20260506135913 | 60 | 51 | 2.6 | 9.6 | 0.00 | 0.00 | 0.00 | 51 | 1010.3 |
| 20260506135415 | 60 | 50 | 2.6 | 7.0 | 0.00 | 0.00 | 0.00 | 48 | 1010.3 |
| 20260506134917 | 60 | 139 | 2.6 | 8.7 | 0.00 | 0.00 | 0.00 | 49 | 1010.3 |
| 20260506134513 | 61 | 53 | 2.6 | 9.6 | 0.00 | 0.00 | 0.00 | 49 | 1010.3 |
| 20260506133410 | 61 | 127 | 3.5 | 7.8 | 0.00 | 0.00 | 0.00 | 48 | 1010.2 |
| 20260506132911 | 61 | 207 | 3.5 | 10.4 | 0.00 | 0.00 | 0.00 | 46 | 1010.3 |
| 20260506132633 | 61 | 109 | 3.5 | 10.4 | 0.00 | 0.00 | 0.00 | 46 | 1010.2 |
| 20260506131910 | 61 | 149 | 2.6 | 9.6 | 0.00 | 0.00 | 0.00 | 45 | 1010.2 |
| 20260506131410 | 62 | 333 | 2.6 | 10.4 | 0.00 | 0.00 | 0.00 | 44 | 1010.2 |
| 20260506130904 | 61 | 74 | 3.5 | 10.4 | 0.00 | 0.00 | 0.00 | 46 | 1010.1 |
| 20260506130403 | 60 | 100 | 3.5 | 9.6 | 0.00 | 0.00 | 0.00 | 43 | 1010.1 |
| 20260506125901 | 60 | 100 | 3.5 | 9.6 | 0.00 | 0.00 | 0.00 | 43 | 1010.2 |
| 20260506125402 | 60 | 30 | 3.5 | 10.4 | 0.00 | 0.00 | 0.00 | 44 | 1010.1 |
| 20260506124905 | 60 | 85 | 3.5 | 13.9 | 0.00 | 0.00 | 0.00 | 43 | 1010.2 |
| 20260506124403 | 60 | 120 | 3.5 | 13.9 | 0.00 | 0.00 | 0.00 | 44 | 1010.1 |
| 20260506123903 | 60 | 97 | 3.5 | 10.4 | 0.00 | 0.00 | 0.00 | 46 | 1010.1 |
| 20260506123402 | 60 | 8 | 3.5 | 9.6 | 0.00 | 0.00 | 0.00 | 47 | 1010.1 |
| 20260506122905 | 60 | 115 | 3.5 | 9.6 | 0.00 | 0.00 | 0.00 | 48 | 1010.0 |
| 20260506122414 | 60 | 27 | 3.5 | 9.6 | 0.00 | 0.00 | 0.00 | 48 | 1010.1 |
| 20260506121900 | 60 | 112 | 3.5 | 9.6 | 0.00 | 0.00 | 0.00 | 49 | 1010.1 |
| 20260506121400 | 60 | 101 | 3.5 | 10.4 | 0.00 | 0.00 | 0.00 | 50 | 1010.0 |
| 20260506120902 | 60 | 27 | 4.3 | 10.4 | 0.00 | 0.00 | 0.00 | 48 | 1010.0 |
| 20260506120654 | 60 | 89 | 4.3 | 11.3 | 0.00 | 0.00 | 0.00 | 48 | 1010.0 |
| 20260506120128 | 60 | 24 | 4.3 | 13.0 | 0.00 | 0.00 | 0.00 | 46 | 1010.0 |
| 20260506115406 | 60 | 195 | 4.3 | 13.0 | 0.00 | 0.00 | 0.00 | 46 | 1010.0 |
| 20260506114900 | 60 | 54 | 3.5 | 11.3 | 0.00 | 0.00 | 0.00 | 46 | 1010.1 |
| 20260506114359 | 60 | 66 | 2.6 | 7.8 | 0.00 | 0.00 | 0.00 | 48 | 1009.9 |
| 20260506113857 | 60 | 52 | 2.6 | 12.2 | 0.00 | 0.00 | 0.00 | 48 | 1010.0 |
| 20260506113356 | 60 | 17 | 4.3 | 12.2 | 0.00 | 0.00 | 0.00 | 47 | 1010.1 |
| 20260506113121 | 60 | 13 | 3.5 | 11.3 | 0.00 | 0.00 | 0.00 | 48 | 1010.1 |
| 20260506112357 | 60 | 65 | 2.6 | 9.6 | 0.00 | 0.00 | 0.00 | 47 | 1010.1 |
| 20260506111857 | 60 | 94 | 3.5 | 9.6 | 0.00 | 0.00 | 0.00 | 49 | 1010.0 |
| 20260506111352 | 60 | 49 | 3.5 | 9.6 | 0.00 | 0.00 | 0.00 | 50 | 1009.9 |
| 20260506110908 | 60 | 58 | 3.5 | 9.6 | 0.00 | 0.00 | 0.00 | 53 | 1009.9 |
| 20260506110354 | 60 | 52 | 3.5 | 9.6 | 0.00 | 0.00 | 0.00 | 52 | 1009.9 |
| 20260506105853 | 60 | 34 | 3.5 | 9.6 | 0.00 | 0.00 | 0.00 | 52 | 1009.9 |
| 20260506105352 | 60 | 46 | 2.6 | 9.6 | 0.00 | 0.00 | 0.00 | 55 | 1010.0 |
| 20260506104855 | 59 | 124 | 2.6 | 8.7 | 0.00 | 0.00 | 0.00 | 57 | 1010.0 |
| 20260506104847 | 59 | 25 | 2.6 | 8.7 | 0.00 | 0.00 | 0.00 | 59 | 1010.0 |
| 20260506104120 | 59 | 31 | 1.7 | 8.7 | 0.00 | 0.00 | 0.00 | 59 | 1009.9 |
| 20260506103355 | 59 | 114 | 1.7 | 7.0 | 0.00 | 0.00 | 0.00 | 59 | 1009.9 |
| 20260506102853 | 58 | 352 | 1.7 | 8.7 | 0.00 | 0.00 | 0.00 | 58 | 1009.9 |
| 20260506101840 | 58 | 125 | 1.7 | 6.1 | 0.00 | 0.00 | 0.00 | 57 | 1010.0 |
| 20260506101335 | 58 | 115 | 1.7 | 7.0 | 0.00 | 0.00 | 0.00 | 58 | 1009.9 |
| 20260506100830 | 58 | 32 | 2.6 | 7.8 | 0.00 | 0.00 | 0.00 | 59 | 1009.9 |
| 20260506100323 | 58 | 45 | 1.7 | 7.8 | 0.00 | 0.00 | 0.00 | 59 | 1009.9 |
| 20260506095817 | 58 | 68 | 1.7 | 8.7 | 0.00 | 0.00 | 0.00 | 58 | 1009.9 |
| 20260506095314 | 58 | 115 | 2.6 | 8.7 | 0.00 | 0.00 | 0.00 | 58 | 1009.9 |
| 20260506094805 | 58 | 54 | 2.6 | 8.7 | 0.00 | 0.00 | 0.00 | 60 | 1009.9 |
| 20260506094522 | 58 | 44 | 2.6 | 8.7 | 0.00 | 0.00 | 0.00 | 58 | 1009.9 |
| 20260506093754 | 58 | 77 | 1.7 | 9.6 | 0.00 | 0.00 | 0.00 | 57 | 1009.9 |
| 20260506093521 | 58 | 91 | 1.7 | 9.6 | 0.00 | 0.00 | 0.00 | 56 | 1009.8 |
| 20260506092741 | 58 | 153 | 1.7 | 7.8 | 0.00 | 0.00 | 0.00 | 53 | 1009.9 |
| 20260506092236 | 58 | 83 | 1.7 | 6.1 | 0.00 | 0.00 | 0.00 | 53 | 1009.9 |
| 20260506091953 | 58 | 36 | 1.7 | 7.0 | 0.00 | 0.00 | 0.00 | 52 | 1009.8 |
| 20260506091225 | 58 | 217 | 1.7 | 7.0 | 0.00 | 0.00 | 0.00 | 53 | 1009.8 |
| 20260506090716 | 58 | 78 | 1.7 | 7.0 | 0.00 | 0.00 | 0.00 | 53 | 1009.8 |
| 20260506090211 | 58 | 302 | 1.7 | 7.0 | 0.00 | 0.00 | 0.00 | 55 | 1009.7 |
| 20260506085705 | 58 | 76 | 1.7 | 8.7 | 0.00 | 0.00 | 0.00 | 53 | 1009.7 |
| 20260506085159 | 58 | 110 | 1.7 | 8.7 | 0.00 | 0.00 | 0.00 | 55 | 1009.7 |
| 20260506084920 | 58 | 38 | 1.7 | 7.0 | 0.00 | 0.00 | 0.00 | 49 | 1009.6 |
| 20260506084414 | 57 | 92 | 2.6 | 7.8 | 0.00 | 0.00 | 0.00 | 50 | 1009.6 |
| 20260506083640 | 57 | 240 | 2.6 | 8.7 | 0.00 | 0.00 | 0.00 | 50 | 1009.6 |
| 20260506083134 | 57 | 164 | 1.7 | 8.7 | 0.00 | 0.00 | 0.00 | 46 | 1009.5 |
| 20260506082630 | 57 | 55 | 1.7 | 6.1 | 0.00 | 0.00 | 0.00 | 44 | 1009.5 |
| 20260506082132 | 57 | 112 | 1.7 | 7.8 | 0.00 | 0.00 | 0.00 | 43 | 1009.6 |
| 20260506081846 | 57 | 275 | 2.6 | 7.8 | 0.00 | 0.00 | 0.00 | 43 | 1009.6 |
| 20260506081131 | 57 | 25 | 1.7 | 7.0 | 0.00 | 0.00 | 0.00 | 42 | 1009.5 |
| 20260506080900 | 56 | 101 | 1.7 | 7.0 | 0.00 | 0.00 | 0.00 | 41 | 1009.6 |
| 20260506080143 | 56 | 348 | 1.7 | 6.1 | 0.00 | 0.00 | 0.00 | 38 | 1009.5 |
| 20260506073125 | 55 | 110 | 1.7 | 5.2 | 0.00 | 0.00 | 0.00 | 22 | 1009.4 |
| 20260506072625 | 55 | 46 | 1.7 | 13.0 | 0.00 | 0.00 | 0.00 | 20 | 1009.4 |
| 20260506072122 | 55 | 233 | 1.7 | 13.0 | 0.00 | 0.00 | 0.00 | 21 | 1009.4 |
| 20260506071623 | 55 | 108 | 1.7 | 7.8 | 0.00 | 0.00 | 0.00 | 13 | 1009.3 |
| 20260506071122 | 55 | 32 | 1.7 | 7.8 | 0.00 | 0.00 | 0.00 | 10 | 1009.5 |
| 20260506070622 | 54 | 50 | 1.7 | 8.7 | 0.00 | 0.00 | 0.00 | 1 | 1009.5 |
| 20260506070124 | 54 | 142 | 1.7 | 8.7 | 0.00 | 0.00 | 0.00 | 1 | 1009.4 |
| 20260506062114 | 52 | 256 | 1.7 | 7.8 | 0.00 | 0.00 | 0.00 | 1 | 1009.1 |
| 20260506061617 | 52 | 344 | 0.9 | 7.8 | 0.00 | 0.00 | 0.00 | 1 | 1009.1 |
| 20260506061115 | 52 | 30 | 0.9 | 3.5 | 0.00 | 0.00 | 0.00 | 1 | 1009.1 |
| 20260506060616 | 52 | 70 | 0.9 | 3.5 | 0.00 | 0.00 | 0.00 | 1 | 1009.1 |
| 20260506060355 | 52 | 195 | 0.9 | 5.2 | 0.00 | 0.00 | 0.00 | 1 | 1009.0 |
| 20260506051110 | 51 | 43 | 0.9 | 4.3 | 0.00 | 0.00 | 0.00 | 1 | 1009.0 |
| 20260506050611 | 51 | 49 | 0.9 | 4.3 | 0.00 | 0.00 | 0.00 | 1 | 1009.1 |
| 20260506050124 | 51 | 6 | 0.9 | 4.3 | 0.00 | 0.00 | 0.00 | 1 | 1009.1 |
| 20260506045108 | 51 | 227 | 0.9 | 6.1 | 0.00 | 0.00 | 0.00 | 1 | 1009.2 |
| 20260506044609 | 51 | 128 | 0.0 | 3.5 | 0.00 | 0.00 | 0.00 | 1 | 1009.2 |
| 20260506044108 | 51 | 248 | 0.9 | 4.3 | 0.00 | 0.00 | 0.00 | 1 | 1009.2 |
| 20260506043611 | 51 | 123 | 0.9 | 4.3 | 0.00 | 0.00 | 0.00 | 1 | 1009.2 |
| 20260506043111 | 51 | 229 | 0.9 | 4.3 | 0.00 | 0.00 | 0.00 | 1 | 1009.2 |
| 20260506042609 | 51 | 92 | 0.9 | 6.1 | 0.00 | 0.00 | 0.00 | 1 | 1009.2 |
| 20260506042111 | 51 | 108 | 0.9 | 6.1 | 0.00 | 0.00 | 0.00 | 1 | 1009.2 |
| 20260506041609 | 51 | 89 | 0.9 | 3.5 | 0.00 | 0.00 | 0.00 | 1 | 1009.2 |
| 20260506041112 | 51 | 44 | 0.9 | 4.3 | 0.00 | 0.00 | 0.00 | 1 | 1009.2 |
| 20260506040611 | 51 | 349 | 0.9 | 5.2 | 0.00 | 0.00 | 0.00 | 1 | 1009.2 |
| 20260506040113 | 51 | 156 | 0.9 | 7.0 | 0.00 | 0.00 | 0.00 | 1 | 1009.2 |
| 20260506035620 | 51 | 59 | 0.9 | 7.0 | 0.00 | 0.00 | 0.00 | 1 | 1009.3 |
| 20260506035108 | 51 | 79 | 0.0 | 5.2 | 0.00 | 0.00 | 0.00 | 1 | 1009.3 |
| 20260506034613 | 51 | 347 | 0.9 | 7.8 | 0.00 | 0.00 | 0.00 | 1 | 1009.3 |
| 20260506034112 | 51 | 113 | 1.7 | 7.8 | 0.00 | 0.00 | 0.00 | 1 | 1009.3 |
| 20260506033829 | 51 | 162 | 0.9 | 7.0 | 0.00 | 0.00 | 0.00 | 1 | 1009.3 |
| 20260506033326 | 51 | 23 | 0.9 | 5.2 | 0.00 | 0.00 | 0.00 | 1 | 1009.3 |
| 20260506032609 | 51 | 203 | 0.9 | 3.5 | 0.00 | 0.00 | 0.00 | 1 | 1009.4 |
| 20260506032107 | 51 | 131 | 0.9 | 3.5 | 0.00 | 0.00 | 0.00 | 1 | 1009.4 |
| 20260506031610 | 51 | 328 | 0.9 | 6.1 | 0.00 | 0.00 | 0.00 | 1 | 1009.4 |
| 20260506031110 | 51 | 51 | 0.9 | 6.1 | 0.00 | 0.00 | 0.00 | 1 | 1009.4 |
| 20260506030611 | 51 | 6 | 0.9 | 5.2 | 0.00 | 0.00 | 0.00 | 1 | 1009.4 |
| 20260506030117 | 51 | 49 | 0.9 | 5.2 | 0.00 | 0.00 | 0.00 | 1 | 1009.5 |
| 20260506025605 | 51 | 72 | 0.9 | 3.5 | 0.00 | 0.00 | 0.00 | 1 | 1009.5 |
| 20260506025105 | 51 | 23 | 0.9 | 3.5 | 0.00 | 0.00 | 0.00 | 1 | 1009.6 |
| 20260506024602 | 51 | 6 | 0.9 | 2.6 | 0.00 | 0.00 | 0.00 | 1 | 1009.6 |
| 20260506024327 | 51 | 76 | 0.9 | 2.6 | 0.00 | 0.00 | 0.00 | 1 | 1009.5 |
| 20260506023607 | 51 | 51 | 0.9 | 3.5 | 0.00 | 0.00 | 0.00 | 1 | 1009.6 |
| 20260506023328 | 51 | 232 | 0.9 | 3.5 | 0.00 | 0.00 | 0.00 | 1 | 1009.6 |
| 20260506022601 | 51 | 44 | 0.9 | 2.6 | 0.00 | 0.00 | 0.00 | 1 | 1009.6 |
| 20260506022058 | 51 | 297 | 0.0 | 2.6 | 0.00 | 0.00 | 0.00 | 1 | 1009.6 |
| 20260506021557 | 51 | 111 | 0.0 | 3.5 | 0.00 | 0.00 | 0.00 | 1 | 1009.5 |
| 20260506021326 | 51 | 108 | 0.9 | 5.2 | 0.00 | 0.00 | 0.00 | 1 | 1009.6 |
| 20260506020547 | 51 | 226 | 0.9 | 5.2 | 0.00 | 0.00 | 0.00 | 1 | 1009.6 |
| 20260506020051 | 51 | 22 | 0.9 | 3.5 | 0.00 | 0.00 | 0.00 | 1 | 1009.7 |
| 20260506015534 | 51 | 2 | 0.9 | 3.5 | 0.00 | 0.00 | 0.00 | 1 | 1009.7 |
| 20260506015027 | 51 | 53 | 0.9 | 3.5 | 0.00 | 0.00 | 0.00 | 1 | 1009.7 |
| 20260506014521 | 51 | 214 | 0.9 | 3.5 | 0.00 | 0.00 | 0.00 | 1 | 1009.8 |
| 20260506014018 | 51 | 63 | 0.9 | 4.3 | 0.00 | 0.00 | 0.00 | 1 | 1009.8 |
| 20260506013511 | 51 | 95 | 0.0 | 1.7 | 0.00 | 0.00 | 0.00 | 1 | 1009.8 |
| 20260506013228 | 51 | 146 | 0.0 | 5.2 | 0.00 | 0.00 | 0.00 | 1 | 1009.8 |
| 20260506012457 | 51 | 115 | 0.0 | 5.2 | 0.00 | 0.00 | 0.00 | 1 | 1009.8 |
| 20260506011957 | 51 | 53 | 0.0 | 2.6 | 0.00 | 0.00 | 0.00 | 1 | 1009.8 |
| 20260506011459 | 50 | 134 | 0.0 | 2.6 | 0.00 | 0.00 | 0.00 | 1 | 1009.8 |
| 20260506010959 | 50 | 195 | 0.0 | 2.6 | 0.00 | 0.00 | 0.00 | 1 | 1009.9 |
| 20260506010458 | 50 | 59 | 0.0 | 0.9 | 0.00 | 0.00 | 0.00 | 1 | 1009.9 |
| 20260506010001 | 50 | 122 | 0.0 | 3.5 | 0.00 | 0.00 | 0.00 | 1 | 1009.9 |
| 20260506005457 | 50 | 47 | 0.0 | 3.5 | 0.00 | 0.00 | 0.00 | 1 | 1010.0 |
| 20260506004956 | 50 | 240 | 0.0 | 0.9 | 0.00 | 0.00 | 0.00 | 1 | 1010.0 |
| 20260506003957 | 50 | 55 | 0.0 | 3.5 | 0.00 | 0.00 | 0.00 | 1 | 1010.2 |
| 20260506003453 | 50 | 41 | 0.0 | 3.5 | 0.00 | 0.00 | 0.00 | 1 | 1010.2 |
| 20260506002955 | 50 | 63 | 0.0 | 0.9 | 0.00 | 0.00 | 0.00 | 1 | 1010.3 |
| 20260506002451 | 50 | 115 | 0.0 | 1.7 | 0.00 | 0.00 | 0.00 | 1 | 1010.4 |
| 20260506001950 | 50 | 276 | 0.0 | 1.7 | 0.00 | 0.00 | 0.00 | 1 | 1010.4 |
| 20260506001449 | 50 | 7 | 0.0 | 1.7 | 0.00 | 0.00 | 0.00 | 1 | 1010.5 |
| 20260506001213 | 50 | 54 | 0.0 | 3.5 | 0.00 | 0.00 | 0.00 | 1 | 1010.5 |
| 20260506000719 | 50 | 215 | 0.0 | 3.5 | 0.00 | 0.00 | 0.00 | 1 | 1010.5 |
| 20260505235950 | 50 | 96 | 0.0 | 2.6 | 0.00 | 0.00 | 0.00 | 1 | 1010.5 |
| 20260505235450 | 50 | 243 | 0.0 | 2.6 | 0.00 | 0.00 | 0.00 | 1 | 1010.6 |
| 20260505234944 | 50 | 250 | 0.0 | 2.6 | 0.00 | 0.00 | 0.00 | 1 | 1010.6 |
| 20260505234438 | 50 | 98 | 0.9 | 4.3 | 0.00 | 0.00 | 0.00 | 1 | 1010.6 |
| 20260505234155 | 50 | 120 | 0.0 | 4.3 | 0.00 | 0.00 | 0.00 | 1 | 1010.6 |
| 20260505233427 | 50 | 316 | 0.0 | 1.7 | 0.00 | 0.00 | 0.00 | 1 | 1010.7 |
| 20260505233145 | 50 | 118 | 0.9 | 3.5 | 0.00 | 0.00 | 0.00 | 1 | 1010.8 |
| 20260505232415 | 50 | 5 | 0.9 | 4.3 | 0.00 | 0.00 | 0.00 | 1 | 1010.9 |
| 20260505231909 | 50 | 245 | 0.9 | 7.0 | 0.00 | 0.00 | 0.00 | 1 | 1010.9 |
| 20260505231628 | 50 | 275 | 1.7 | 7.8 | 0.00 | 0.00 | 0.00 | 1 | 1010.9 |
| 20260505230855 | 51 | 32 | 0.9 | 7.8 | 0.00 | 0.00 | 0.00 | 1 | 1010.9 |
| 20260505230351 | 51 | 270 | 0.9 | 3.5 | 0.00 | 0.00 | 0.00 | 1 | 1010.9 |
| 20260505225846 | 51 | 64 | 0.9 | 8.7 | 0.00 | 0.00 | 0.00 | 1 | 1010.9 |
| 20260505225339 | 51 | 330 | 0.9 | 8.7 | 0.00 | 0.00 | 0.00 | 5 | 1010.9 |
| 20260505224835 | 51 | 122 | 0.9 | 4.3 | 0.00 | 0.00 | 0.00 | 6 | 1010.9 |
| 20260505224327 | 51 | 349 | 0.9 | 4.3 | 0.00 | 0.00 | 0.00 | 11 | 1010.9 |
| 20260505223821 | 51 | 51 | 0.0 | 3.5 | 0.00 | 0.00 | 0.00 | 12 | 1011.0 |
| 20260505223316 | 51 | 117 | 0.0 | 3.5 | 0.00 | 0.00 | 0.00 | 16 | 1011.0 |
| 20260505222808 | 51 | 257 | 0.9 | 7.0 | 0.00 | 0.00 | 0.00 | 16 | 1011.0 |
| 20260505222305 | 51 | 120 | 0.9 | 7.0 | 0.00 | 0.00 | 0.00 | 16 | 1011.0 |
| 20260505222252 | 51 | 30 | 0.9 | 5.2 | 0.00 | 0.00 | 0.00 | 14 | 1011.1 |
| 20260505221250 | 51 | 66 | 0.9 | 5.2 | 0.00 | 0.00 | 0.00 | 14 | 1011.0 |
| 20260505220743 | 51 | 159 | 0.9 | 4.3 | 0.00 | 0.00 | 0.00 | 17 | 1011.1 |
| 20260505220239 | 51 | 60 | 0.9 | 5.2 | 0.00 | 0.00 | 0.00 | 19 | 1011.1 |
| 20260505215731 | 51 | 252 | 0.9 | 5.2 | 0.00 | 0.00 | 0.00 | 21 | 1011.1 |
| 20260505215227 | 51 | 39 | 0.9 | 4.3 | 0.00 | 0.00 | 0.00 | 22 | 1011.2 |
| 20260505214720 | 51 | 49 | 0.9 | 4.3 | 0.00 | 0.00 | 0.00 | 24 | 1011.2 |
| 20260505214214 | 51 | 75 | 0.9 | 7.0 | 0.00 | 0.00 | 0.00 | 24 | 1011.3 |
| 20260505213708 | 51 | 48 | 1.7 | 7.0 | 0.00 | 0.00 | 0.00 | 28 | 1011.3 |
| 20260505213201 | 51 | 60 | 0.9 | 5.2 | 0.00 | 0.00 | 0.00 | 30 | 1011.4 |
| 20260505212656 | 51 | 205 | 0.9 | 5.2 | 0.00 | 0.00 | 0.00 | 33 | 1011.4 |
| 20260505212151 | 51 | 99 | 0.9 | 4.3 | 0.00 | 0.00 | 0.00 | 36 | 1011.4 |
| 20260505211644 | 51 | 4 | 0.9 | 4.3 | 0.00 | 0.00 | 0.00 | 37 | 1011.3 |
| 20260505211141 | 51 | 168 | 0.9 | 3.5 | 0.00 | 0.00 | 0.00 | 40 | 1011.4 |
| 20260505210632 | 52 | 82 | 0.9 | 5.2 | 0.00 | 0.00 | 0.00 | 40 | 1011.4 |
| 20260505210128 | 52 | 326 | 1.7 | 5.2 | 0.00 | 0.00 | 0.00 | 40 | 1011.4 |
| 20260505205626 | 52 | 107 | 1.7 | 5.2 | 0.00 | 0.00 | 0.00 | 42 | 1011.5 |
| 20260505205115 | 52 | 122 | 1.7 | 5.2 | 0.00 | 0.00 | 0.00 | 42 | 1011.5 |
| 20260505204609 | 52 | 32 | 2.6 | 5.2 | 0.00 | 0.00 | 0.00 | 45 | 1011.5 |
| 20260505204102 | 52 | 26 | 2.6 | 6.1 | 0.00 | 0.00 | 0.00 | 46 | 1011.5 |
| 20260505203555 | 52 | 33 | 2.6 | 7.0 | 0.00 | 0.00 | 0.00 | 44 | 1011.5 |
| 20260505203049 | 52 | 82 | 1.7 | 7.0 | 0.00 | 0.00 | 0.00 | 44 | 1011.4 |
| 20260505202546 | 53 | 30 | 0.9 | 5.2 | 0.00 | 0.00 | 0.00 | 43 | 1011.4 |
| 20260505202039 | 53 | 143 | 0.9 | 5.2 | 0.00 | 0.00 | 0.00 | 44 | 1011.4 |
| 20260505201537 | 53 | 58 | 1.7 | 6.1 | 0.00 | 0.00 | 0.00 | 48 | 1011.3 |
| 20260505201255 | 53 | 51 | 1.7 | 6.1 | 0.00 | 0.00 | 0.00 | 50 | 1011.3 |
| 20260505200520 | 53 | 36 | 1.7 | 7.0 | 0.00 | 0.00 | 0.00 | 50 | 1011.3 |
| 20260505200237 | 53 | 248 | 1.7 | 7.0 | 0.00 | 0.00 | 0.00 | 48 | 1011.3 |
| 20260505195510 | 53 | 57 | 0.9 | 7.0 | 0.00 | 0.00 | 0.00 | 46 | 1011.2 |
| 20260505195221 | 53 | 236 | 0.9 | 3.5 | 0.00 | 0.00 | 0.00 | 41 | 1011.2 |
| 20260505194456 | 52 | 345 | 0.9 | 3.5 | 0.00 | 0.00 | 0.00 | 40 | 1011.1 |
| 20260505193950 | 52 | 195 | 0.9 | 4.3 | 0.00 | 0.00 | 0.00 | 36 | 1011.1 |
| 20260505193703 | 52 | 79 | 0.0 | 4.3 | 0.00 | 0.00 | 0.00 | 37 | 1011.1 |
| 20260505192937 | 52 | 267 | 0.0 | 1.7 | 0.00 | 0.00 | 0.00 | 36 | 1011.0 |
| 20260505192432 | 52 | 105 | 0.0 | 1.7 | 0.00 | 0.00 | 0.00 | 39 | 1011.1 |
| 20260505192150 | 53 | 58 | 0.0 | 3.5 | 0.00 | 0.00 | 0.00 | 40 | 1011.0 |
| 20260505191423 | 53 | 149 | 0.0 | 3.5 | 0.00 | 0.00 | 0.00 | 44 | 1011.0 |
| 20260505190914 | 53 | 285 | 0.9 | 5.2 | 0.00 | 0.00 | 0.00 | 42 | 1010.9 |
| 20260505190408 | 53 | 327 | 0.9 | 5.2 | 0.00 | 0.00 | 0.00 | 45 | 1010.9 |
| 20260505185903 | 53 | 21 | 0.0 | 3.5 | 0.00 | 0.00 | 0.00 | 40 | 1010.8 |
| 20260505185357 | 53 | 120 | 0.0 | 2.6 | 0.00 | 0.00 | 0.00 | 42 | 1010.9 |
| 20260505184857 | 53 | 149 | 0.9 | 3.5 | 0.00 | 0.00 | 0.00 | 43 | 1010.8 |
| 20260505184358 | 53 | 250 | 0.9 | 6.1 | 0.00 | 0.00 | 0.00 | 45 | 1010.8 |
| 20260505183858 | 53 | 205 | 0.9 | 6.1 | 0.00 | 0.00 | 0.00 | 46 | 1010.8 |
| 20260505183621 | 54 | 60 | 0.9 | 6.1 | 0.00 | 0.00 | 0.00 | 46 | 1010.8 |
| 20260505182900 | 54 | 136 | 0.9 | 6.1 | 0.00 | 0.00 | 0.00 | 47 | 1010.9 |